Time,TemperatureF,DewpointF,PressureIn,WindDirection,WindDirectionDegrees,WindSpeedMPH,WindSpeedGustMPH,Humidity,HourlyPrecipIn,Conditions,Clouds,dailyrainin,SoftwareType,DateUTC
2013-03-04 00:11:00,25.8,22.0,30.09,NNW,338,0.0,0.0,85,0.00,,,0.00,weatherlink.com 1.10,2013-03-04 06:11:00,
2013-03-04 00:26:00,25.7,22.0,30.10,NNW,338,0.0,0.0,84,0.00,,,0.00,weatherlink.com 1.10,2013-03-04 06:26:00,
2013-03-04 00:41:00,25.4,22.0,30.09,NNW,338,0.0,0.0,85,0.00,,,0.00,weatherlink.com 1.10,2013-03-04 06:41:00,
2013-03-04 00:56:00,25.2,21.0,30.10,NNW,338,0.0,0.0,85,0.00,,,0.00,weatherlink.com 1.10,2013-03-04 06:56:00,
2013-03-04 01:11:00,25.4,22.0,30.10,NNW,338,0.0,0.0,86,0.00,,,0.00,weatherlink.com 1.10,2013-03-04 07:11:00,
2013-03-04 01:26:00,26.0,22.0,30.10,NNW,338,0.0,0.0,85,0.00,,,0.00,weatherlink.com 1.10,2013-03-04 07:26:00,
2013-03-04 01:41:00,26.5,23.0,30.11,NNW,338,0.0,0.0,86,0.00,,,0.00,weatherlink.com 1.10,2013-03-04 07:41:00,
2013-03-04 01:56:00,27.0,23.0,30.11,NNW,338,0.0,0.0,86,0.00,,,0.00,weatherlink.com 1.10,2013-03-04 07:56:00,
2013-03-04 02:11:00,27.4,24.0,30.11,NNW,338,0.0,0.0,85,0.00,,,0.00,weatherlink.com 1.10,2013-03-04 08:11:00,
2013-03-04 02:26:00,27.9,24.0,30.11,NNW,338,0.0,0.0,85,0.00,,,0.00,weatherlink.com 1.10,2013-03-04 08:26:00,
2013-03-04 02:42:00,28.2,24.0,30.11,NNW,338,0.0,0.0,84,0.00,,,0.00,weatherlink.com 1.10,2013-03-04 08:42:00,
2013-03-04 02:57:00,28.3,24.0,30.11,NNW,338,0.0,0.0,85,0.00,,,0.00,weatherlink.com 1.10,2013-03-04 08:57:00,
2013-03-04 03:12:00,28.0,24.0,30.12,NNW,338,0.0,0.0,85,0.00,,,0.00,weatherlink.com 1.10,2013-03-04 09:12:00,
2013-03-04 03:27:00,27.7,24.0,30.12,NNW,338,0.0,0.0,84,0.00,,,0.00,weatherlink.com 1.10,2013-03-04 09:27:00,
2013-03-04 03:42:00,27.5,24.0,30.12,NNW,338,0.0,0.0,85,0.00,,,0.00,weatherlink.com 1.10,2013-03-04 09:42:00,
2013-03-04 03:57:00,27.4,24.0,30.11,NNW,338,0.0,0.0,86,0.00,,,0.00,weatherlink.com 1.10,2013-03-04 09:57:00,
2013-03-04 04:12:00,27.5,24.0,30.12,NNW,338,0.0,0.0,86,0.00,,,0.00,weatherlink.com 1.10,2013-03-04 10:12:00,
2013-03-04 04:27:00,27.3,24.0,30.13,NNW,338,0.0,0.0,86,0.00,,,0.00,weatherlink.com 1.10,2013-03-04 10:27:00,
2013-03-04 04:42:00,27.0,23.0,30.13,NNW,338,0.0,0.0,86,0.00,,,0.00,weatherlink.com 1.10,2013-03-04 10:42:00,
2013-03-04 04:57:00,26.7,23.0,30.13,NNW,338,0.0,0.0,85,0.00,,,0.00,weatherlink.com 1.10,2013-03-04 10:57:00,
2013-03-04 05:12:00,26.5,23.0,30.13,NNW,338,0.0,0.0,86,0.00,,,0.00,weatherlink.com 1.10,2013-03-04 11:12:00,
2013-03-04 05:27:00,26.3,23.0,30.13,NNW,338,0.0,0.0,87,0.00,,,0.00,weatherlink.com 1.10,2013-03-04 11:27:00,
2013-03-04 05:42:00,26.0,23.0,30.14,NNW,338,0.0,0.0,87,0.00,,,0.00,weatherlink.com 1.10,2013-03-04 11:42:00,
2013-03-04 05:57:00,25.8,23.0,30.13,NNW,338,0.0,0.0,88,0.00,,,0.00,weatherlink.com 1.10,2013-03-04 11:57:00,
2013-03-04 06:12:00,25.6,23.0,30.14,NNW,338,0.0,0.0,88,0.00,,,0.00,weatherlink.com 1.10,2013-03-04 12:12:00,
2013-03-04 06:27:00,25.4,22.0,30.14,NNW,338,0.0,0.0,88,0.00,,,0.00,weatherlink.com 1.10,2013-03-04 12:27:00,
2013-03-04 06:42:00,25.3,23.0,30.14,NNW,338,0.0,0.0,89,0.00,,,0.00,weatherlink.com 1.10,2013-03-04 12:42:00,
2013-03-04 06:57:00,25.7,23.0,30.15,NNW,338,0.0,0.0,90,0.00,,,0.00,weatherlink.com 1.10,2013-03-04 12:57:00,
2013-03-04 07:12:00,26.3,24.0,30.15,NNW,338,0.0,0.0,90,0.00,,,0.00,weatherlink.com 1.10,2013-03-04 13:12:00,
2013-03-04 07:27:00,27.3,25.0,30.15,NNW,338,0.0,0.0,90,0.00,,,0.00,weatherlink.com 1.10,2013-03-04 13:27:00,
2013-03-04 07:42:00,28.8,25.0,30.15,NNW,338,0.0,0.0,87,0.00,,,0.00,weatherlink.com 1.10,2013-03-04 13:42:00,
2013-03-04 07:57:00,31.8,28.0,30.16,SW,232,0.0,1.0,84,0.00,,,0.00,weatherlink.com 1.10,2013-03-04 13:57:00,
2013-03-04 08:12:00,34.6,28.0,30.15,ESE,110,0.0,1.0,76,0.00,,,0.00,weatherlink.com 1.10,2013-03-04 14:12:00,
2013-03-04 08:27:00,36.8,27.0,30.15,ENE,68,0.0,2.0,68,0.00,,,0.00,weatherlink.com 1.10,2013-03-04 14:27:00,
2013-03-04 08:44:00,37.9,27.0,30.16,NW,324,0.0,2.0,65,0.00,,,0.00,weatherlink.com 1.10,2013-03-04 14:44:00,
2013-03-04 08:57:00,38.4,26.0,30.16,South,175,2.0,3.0,61,0.00,,,0.00,weatherlink.com 1.10,2013-03-04 14:57:00,
2013-03-04 09:12:00,39.2,25.0,30.15,NNW,337,0.0,1.0,58,0.00,,,0.00,weatherlink.com 1.10,2013-03-04 15:12:00,
2013-03-04 09:27:00,40.0,26.0,30.15,NNW,335,0.0,1.0,57,0.00,,,0.00,weatherlink.com 1.10,2013-03-04 15:27:00,
2013-03-04 09:42:00,41.4,24.0,30.15,ENE,67,0.0,3.0,51,0.00,,,0.00,weatherlink.com 1.10,2013-03-04 15:42:00,
2013-03-04 09:58:00,43.2,25.0,30.14,SSE,166,0.0,2.0,48,0.00,,,0.00,weatherlink.com 1.10,2013-03-04 15:58:00,
2013-03-04 10:13:00,44.2,24.0,30.14,NNE,24,0.0,3.0,46,0.00,,,0.00,weatherlink.com 1.10,2013-03-04 16:13:00,
2013-03-04 10:28:00,45.6,26.0,30.13,SW,229,0.0,3.0,46,0.00,,,0.00,weatherlink.com 1.10,2013-03-04 16:28:00,
2013-03-04 10:43:00,45.8,25.0,30.13,ESE,121,0.0,1.0,45,0.00,,,0.00,weatherlink.com 1.10,2013-03-04 16:43:00,
2013-03-04 10:58:00,45.6,27.0,30.12,SSW,199,2.0,3.0,48,0.00,,,0.00,weatherlink.com 1.10,2013-03-04 16:58:00,
2013-03-04 11:13:00,45.8,26.0,30.11,SSE,161,0.0,3.0,47,0.00,,,0.00,weatherlink.com 1.10,2013-03-04 17:13:00,
2013-03-04 11:28:00,46.1,27.0,30.11,ESE,121,0.0,3.0,47,0.00,,,0.00,weatherlink.com 1.10,2013-03-04 17:28:00,
2013-03-04 11:43:00,47.0,28.0,30.10,North,5,0.0,2.0,48,0.00,,,0.00,weatherlink.com 1.10,2013-03-04 17:43:00,
2013-03-04 11:58:00,49.5,28.0,30.09,SE,132,1.0,4.0,44,0.00,,,0.00,weatherlink.com 1.10,2013-03-04 17:58:00,
2013-03-04 12:13:00,51.5,29.0,30.07,ESE,119,1.0,5.0,42,0.00,,,0.00,weatherlink.com 1.10,2013-03-04 18:13:00,
2013-03-04 12:28:00,52.6,27.0,30.06,SSE,163,1.0,7.0,38,0.00,,,0.00,weatherlink.com 1.10,2013-03-04 18:28:00,
2013-03-04 12:43:00,53.4,28.0,30.05,NW,307,0.0,4.0,38,0.00,,,0.00,weatherlink.com 1.10,2013-03-04 18:43:00,
2013-03-04 12:58:00,54.2,29.0,30.04,WSW,252,0.0,6.0,38,0.00,,,0.00,weatherlink.com 1.10,2013-03-04 18:58:00,
2013-03-04 13:13:00,55.3,29.0,30.03,NE,51,0.0,8.0,37,0.00,,,0.00,weatherlink.com 1.10,2013-03-04 19:13:00,
2013-03-04 13:28:00,55.7,29.0,30.02,NE,44,0.0,4.0,36,0.00,,,0.00,weatherlink.com 1.10,2013-03-04 19:28:00,
2013-03-04 13:43:00,56.1,29.0,30.01,West,261,1.0,4.0,35,0.00,,,0.00,weatherlink.com 1.10,2013-03-04 19:43:00,
2013-03-04 13:58:00,57.2,31.0,30.00,SE,127,1.0,4.0,37,0.00,,,0.00,weatherlink.com 1.10,2013-03-04 19:58:00,
2013-03-04 14:13:00,57.8,29.0,29.99,SW,219,3.0,6.0,34,0.00,,,0.00,weatherlink.com 1.10,2013-03-04 20:13:00,
2013-03-04 14:28:00,57.8,29.0,29.99,South,182,0.0,3.0,34,0.00,,,0.00,weatherlink.com 1.10,2013-03-04 20:28:00,
2013-03-04 14:43:00,57.9,30.0,29.98,SW,234,0.0,3.0,35,0.00,,,0.00,weatherlink.com 1.10,2013-03-04 20:43:00,
2013-03-04 14:58:00,57.7,33.0,29.98,South,189,0.0,2.0,39,0.00,,,0.00,weatherlink.com 1.10,2013-03-04 20:58:00,
2013-03-04 15:13:00,57.7,30.0,29.97,SSW,204,2.0,3.0,35,0.00,,,0.00,weatherlink.com 1.10,2013-03-04 21:13:00,
2013-03-04 15:28:00,58.0,32.0,29.97,WSW,240,0.0,2.0,37,0.00,,,0.00,weatherlink.com 1.10,2013-03-04 21:28:00,
2013-03-04 15:44:00,57.7,34.0,29.96,SSE,155,0.0,4.0,41,0.00,,,0.00,weatherlink.com 1.10,2013-03-04 21:44:00,
2013-03-04 15:59:00,57.3,34.0,29.96,South,178,0.0,2.0,41,0.00,,,0.00,weatherlink.com 1.10,2013-03-04 21:59:00,
2013-03-04 16:14:00,56.5,36.0,29.96,SE,134,0.0,1.0,47,0.00,,,0.00,weatherlink.com 1.10,2013-03-04 22:14:00,
2013-03-04 16:29:00,55.7,36.0,29.95,South,169,0.0,2.0,47,0.00,,,0.00,weatherlink.com 1.10,2013-03-04 22:29:00,
2013-03-04 16:44:00,54.9,37.0,29.95,South,179,0.0,2.0,51,0.00,,,0.00,weatherlink.com 1.10,2013-03-04 22:44:00,
2013-03-04 16:59:00,53.7,39.0,29.95,South,179,0.0,1.0,57,0.00,,,0.00,weatherlink.com 1.10,2013-03-04 22:59:00,
2013-03-04 17:14:00,52.5,38.0,29.94,South,179,0.0,0.0,58,0.00,,,0.00,weatherlink.com 1.10,2013-03-04 23:14:00,
2013-03-04 17:29:00,51.3,36.0,29.93,South,175,0.0,0.0,56,0.00,,,0.00,weatherlink.com 1.10,2013-03-04 23:29:00,
2013-03-04 17:44:00,50.5,35.0,29.91,South,188,0.0,2.0,56,0.00,,,0.00,weatherlink.com 1.10,2013-03-04 23:44:00,
2013-03-04 17:59:00,50.4,35.0,29.93,South,188,0.0,0.0,56,0.00,,,0.00,weatherlink.com 1.10,2013-03-04 23:59:00,
2013-03-04 18:14:00,49.6,36.0,29.94,South,188,0.0,0.0,60,0.00,,,0.00,weatherlink.com 1.10,2013-03-05 00:14:00,
2013-03-04 18:29:00,49.5,36.0,29.95,South,171,0.0,2.0,59,0.00,,,0.00,weatherlink.com 1.10,2013-03-05 00:29:00,
2013-03-04 18:44:00,51.0,35.0,29.94,SSW,208,0.0,5.0,54,0.00,,,0.00,weatherlink.com 1.10,2013-03-05 00:44:00,
2013-03-04 18:59:00,52.6,34.0,29.94,SSW,211,1.0,4.0,50,0.00,,,0.00,weatherlink.com 1.10,2013-03-05 00:59:00,
2013-03-04 19:14:00,53.1,35.0,29.95,SW,225,0.0,7.0,50,0.00,,,0.00,weatherlink.com 1.10,2013-03-05 01:14:00,
2013-03-04 19:29:00,53.2,34.0,29.94,South,183,0.0,2.0,49,0.00,,,0.00,weatherlink.com 1.10,2013-03-05 01:29:00,
2013-03-04 19:44:00,52.6,35.0,29.94,SSE,166,0.0,4.0,51,0.00,,,0.00,weatherlink.com 1.10,2013-03-05 01:44:00,
2013-03-04 19:59:00,52.1,34.0,29.93,South,186,0.0,5.0,51,0.00,,,0.00,weatherlink.com 1.10,2013-03-05 01:59:00,
2013-03-04 20:14:00,51.4,35.0,29.94,South,177,0.0,2.0,53,0.00,,,0.00,weatherlink.com 1.10,2013-03-05 02:14:00,
2013-03-04 20:29:00,51.3,34.0,29.94,South,173,0.0,4.0,53,0.00,,,0.00,weatherlink.com 1.10,2013-03-05 02:29:00,
2013-03-04 20:44:00,51.3,35.0,29.93,South,190,0.0,5.0,54,0.00,,,0.00,weatherlink.com 1.10,2013-03-05 02:44:00,
2013-03-04 20:59:00,50.6,35.0,29.94,SSW,204,0.0,1.0,56,0.00,,,0.00,weatherlink.com 1.10,2013-03-05 02:59:00,
2013-03-04 21:14:00,50.1,36.0,29.95,South,181,0.0,1.0,58,0.00,,,0.00,weatherlink.com 1.10,2013-03-05 03:14:00,
2013-03-04 21:29:00,50.1,35.0,29.96,SSW,193,0.0,5.0,57,0.00,,,0.00,weatherlink.com 1.10,2013-03-05 03:29:00,
2013-03-04 21:44:00,50.4,35.0,29.96,SSE,165,0.0,3.0,57,0.00,,,0.00,weatherlink.com 1.10,2013-03-05 03:44:00,
2013-03-04 21:59:00,50.5,36.0,29.97,South,182,0.0,5.0,59,0.00,,,0.00,weatherlink.com 1.10,2013-03-05 03:59:00,
2013-03-04 22:14:00,50.4,38.0,29.98,SW,217,0.0,1.0,62,0.00,,,0.00,weatherlink.com 1.10,2013-03-05 04:14:00,
2013-03-04 22:29:00,50.4,38.0,29.98,South,189,0.0,1.0,63,0.00,,,0.00,weatherlink.com 1.10,2013-03-05 04:29:00,
2013-03-04 22:44:00,50.2,38.0,29.97,South,182,0.0,1.0,63,0.00,,,0.00,weatherlink.com 1.10,2013-03-05 04:44:00,
2013-03-04 22:59:00,50.3,39.0,29.97,SSW,209,0.0,1.0,65,0.00,,,0.00,weatherlink.com 1.10,2013-03-05 04:59:00,
2013-03-04 23:14:00,51.1,40.0,29.97,SSW,192,4.0,4.0,65,0.00,,,0.00,weatherlink.com 1.10,2013-03-05 05:14:00,
2013-03-04 23:29:00,51.8,41.0,29.96,South,179,5.0,6.0,66,0.00,,,0.00,weatherlink.com 1.10,2013-03-05 05:29:00,
2013-03-04 23:44:00,52.1,41.0,29.95,South,188,0.0,3.0,65,0.00,,,0.00,weatherlink.com 1.10,2013-03-05 05:44:00,
2013-03-04 23:59:00,52.4,42.0,29.95,SSW,202,1.0,9.0,67,0.00,,,0.00,weatherlink.com 1.10,2013-03-05 05:59:00,